Regional Weather Roundup
Issued by NWS

Home | Current Version | Previous Version | Text Only | Print | Product List | Glossary Off
Versions: 1 2 3 4 5 6 7 8 9 10 11 12 13 14 15 16 17 18 19 20 21 22 23 24 25 26 27 28 29 30 31 32 33 34 35 36 37 38 39 40 41 42 43 44 45 46 47 48 49 50

668
ASUS43 KDTX 242301
RWRMI
MICHIGAN HOURLY REGIONAL WEATHER ROUNDUP
NATIONAL WEATHER SERVICE DETROIT/PONTIAC MI
700 PM EDT FRI MAR 24 2017

NOTE: "FAIR" INDICATES FEW OR NO CLOUDS BELOW 12,000 FEET WITH NO
SIGNIFICANT WEATHER AND/OR OBSTRUCTION TO VISIBILITY.

MIZ047>049-052>055-059>063-066>070-074>076-081>083-250000-
SOUTHEAST LOWER MICHIGAN

CITY           SKY/WX    TMP DP  RH WIND       PRES   REMARKS
ADRIAN         CLEAR     72  54  53 SW9G20    29.97R
ALMA           PTCLDY    63  49  59 N6        29.94R
ANN ARBOR      CLEAR     73  50  44 SW17      29.94R
BAD AXE        CLOUDY    39  35  84 NE12      30.01S WCI  32
CARO           CLEAR     46  38  75 NE8G18    29.97S
DETROIT CITY   MOCLDY    73  55  53 SW9       29.92R
DETROIT        MOCLDY    74  54  49 SW21      29.94R
FLINT          CLEAR     63  50  62 NW8       29.94S
GROSSE ILE     PTCLDY    73  52  48 SW10G20   29.93S
HILLSDALE      CLOUDY    70  52  52 SW9G22    29.96S
HOWELL         CLOUDY    68  48  48 N3        29.93S

CITY           SKY/WX    TMP DP  RH WIND       PRES   REMARKS
JACKSON        CLOUDY    72  53  51 SW14      29.94R
LAMBERTVILLE   CLEAR     75  52  45 W13       29.96R
LANSING        PTCLDY    67  49  52 N7        29.94R
LAPEER         CLOUDY    66  49  54 N3        29.96R
MASON          PTCLDY    68  53  57 N6        29.92S
MONROE         CLEAR     72  56  55 MISG      29.94S
MT. CLEMENS    MOCLDY    71  53  52 CALM      29.91R
PONTIAC        CLOUDY    68  51  54 N8G18     29.93R
PORT HOPE        N/A     36  33  89 N8        30.01R WCI  30
PORT HURON     CLOUDY    46  36  66 N16G23    29.99R
TRI CITIES     CLOUDY    44  39  82 NE17      29.99R
MIDLAND        MOCLDY    46  37  71 E10       29.99R
TROY           PTCLDY    75  44  33 SW7       29.93S
SAGINAW HB     MOCLDY    46  36  66 NE17      29.98R
$$
MIZ043>046-050>051-056>058-064>065-071>073-077>080-250000-
SOUTHWEST LOWER MICHIGAN

CITY           SKY/WX    TMP DP  RH WIND       PRES   REMARKS
BATTLE CREEK   CLOUDY    73  52  47 SW12      29.93R
BENTON HARBOR  CLOUDY    59  41  51 CALM      29.93R
BIG RAPIDS     CLOUDY    50  37  62 N12       29.99R
COLDWATER      CLOUDY    72  51  47 SW13G20   29.95R
FREMONT        FAIR      56  41  58 N15       29.97R
HOLLAND        CLOUDY    64  50  60 CALM      29.92R
GRAND RAPIDS   CLOUDY    65  48  54 NW3       29.91S
IONIA          FAIR      63  48  57 CALM      29.91S
KALAMAZOO      LGT RAIN  73  52  47 SW9       29.92R
LUDINGTON      LGT RAIN  40  39  95 N10       30.02R WCI  34
MARSHALL       MOCLDY    73  53  49 SW8G17    29.93R
MOUNT PLEASANT CLOUDY    52  39  62 N12G20    29.98R
MUSKEGON       CLOUDY    54  43  66 NW8       29.97R
SOUTH HAVEN    MOSUNNY   61  44  54 CALM      29.92S
$$
MIZ016>042-250000-
NORTHERN LOWER MICHIGAN

CITY           SKY/WX    TMP DP  RH WIND       PRES   REMARKS
ALPENA         RAIN      35  34  96 N7        30.09R FOG     WCI  29
BEAVER ISLAND  CLOUDY    35  35  99 NE3       30.09R FOG
BELLAIRE       LGT SNOW  36  34  93 CALM      30.08R
CADILLAC       LGT RAIN  36  35  96 E5        30.01R WCI  32
CHARLEVOIX     MIX PCPN  33  33 100 N6        30.12R WCI  27
FRANKFORT      LGT RAIN  36  33  90 NE3       30.09R
GAYLORD        RAIN      35  31  85 NE7       30.04R FOG     WCI  29
GRAYLING       MIX PCPN  37  36  93 N3        30.05R
HARBOR SPRINGS LGT RAIN  33  33 100 CALM      30.08R
HOUGHTON LAKE  LGT RAIN  39  37  92 N8        30.02R WCI  33
MANISTEE       LGT RAIN  38  36  92 NE9       30.05R WCI  31
OSCODA         CLOUDY    37  34  89 N10       30.04R WCI  30
PELLSTON       LGT RAIN  35  32  88 N3        30.10R
ROGERS CITY    LGT SNOW  34  32  94 CALM        N/A
TRAVERSE CITY  LGT RAIN  36  34  92 VRB3      30.08R FOG
$$
MIZ007>008-015-250000-
EASTERN UPPER MICHIGAN

CITY           SKY/WX    TMP DP  RH WIND       PRES   REMARKS
KINROSS        CLOUDY    34  32  92 NW9       30.10R FOG     WCI  27
MACKINAC ISLAN CLOUDY    33  33 100 N8        30.08S FOG     WCI  26
NEWBERRY       CLOUDY    34  33  96 N10       30.10R WCI  26
S. S. MARIE    CLOUDY    38  32  79 NW5       30.09R WCI  34
MUNISING         N/A     35  33  92 N13       30.11S WCI  26
$$
MIZ004>006-011>014-085-250000-
CENTRAL UPPER MICHIGAN

CITY           SKY/WX    TMP DP  RH WIND       PRES   REMARKS
MANISTIQUE     CLOUDY    36  36 100 N7        30.09S WCI  30
ESCANABA       CLOUDY    37  34  89 N7        30.11S WCI  32
MENOMINEE        N/A    N/A N/A N/A MISG        N/A
SAWYER-GWINN   CLOUDY    32  32 100 N13       30.10S FOG     WCI  22
$$
MIZ001>003-009>011-084-250000-
WESTERN UPPER MICHIGAN

CITY           SKY/WX    TMP DP  RH WIND       PRES   REMARKS
IRON MOUNTAIN  CLOUDY    37  31  78 N8        30.10R WCI  31
HOUGHTON       CLOUDY    36  30  79 NE9       30.13S WCI  29
COPPER HARBOR    N/A     35  32  88 E15       30.16R WCI  25
IRONWOOD       CLOUDY    35  32  88 N7        30.15R WCI  29
$$

ABBREVIATIONS USED IN REMARKS
   TC - TEMPERATURE IN CELSIUS
  WCI - WIND CHILL INDEX
   HX - HEAT INDEX
  VSB - VISIBILITY





USA.gov is the U.S. government's official web portal to all federal, state and local government web resources and services.